Flag for Nepal Weather past 2 weeks in Pokhara, Nepal

Now
81 °F

Broken clouds.


Feels Like: 84 °F
Forecast: 61 / 81 °F
Wind: 7 mph from West

Location: Kathmandu Airport

Current Time: Aug 22, 2014 at 1:56:53 PM

Latest Report: Aug 22, 2014 at 1:35 PM


Visibility: 5 mi

Pressure: 29.89 "Hg

Humidity: 70%

Dew point: 70 °F

Location of PokharaLocation

Historic Weather in Pokhara — Graph

°F

Pokhara temperature yesterday

Maximum temperature yesterday: 79 °F (at 11:35 AM)
Minimum temperature yesterday: 70 °F (at 12:35 AM)
Average temperature yesterday: 73 °F

Past Weeks' High & Low Weather Summary

 TemperatureHumidityPressure
High82 °F (Aug 8, 1:35 PM)100% (Aug 8, 12:35 AM)30.04 "Hg (Aug 8, 12:35 AM)
Low66 °F (Aug 16, 5:35 AM)62% (Aug 18, 1:35 PM)29.56 "Hg (Aug 14, 8:35 PM)
Average73 °F87%29.85 "Hg
* Reported Aug 7 2:35 PM — Aug 22 12:35 PM, Pokhara, Weather by CustomWeather, © 2014

Note: Actual official high and low records may vary slightly from our data, if they occured in-between our weather recording intervals... More about our weather records

Advertising

Pokhara weather history for previous 24 hours

 ConditionsComfort  
Time TempWeatherWind HumidityBarometerVisibility
12:35 PM
Aug 22
82 °FBroken clouds.No wind66%29.89 "Hg5 mi
11:35 AM82 °FScattered clouds.No wind62%29.92 "Hg5 mi
10:35 AM79 °FScattered clouds.No wind74%29.92 "Hg5 mi
9:35 AM79 °FScattered clouds.No wind70%29.95 "Hg4 mi
8:35 AM77 °FScattered clouds.No wind79%29.92 "Hg4 mi
7:35 AM73 °FScattered clouds.No wind89%29.92 "Hg4 mi
6:35 AM70 °FBroken clouds.No wind94%29.89 "Hg4 mi
5:35 AM70 °FFog.No wind94%29.89 "Hg3 mi
4:35 AM70 °FMostly cloudy.No wind94%29.86 "Hg4 mi
3:35 AM70 °FMostly cloudy.No wind94%29.86 "Hg4 mi
2:35 AM70 °FOvercast.No wind94%29.86 "Hg4 mi
1:35 AM70 °FPartly cloudy.No wind94%29.89 "Hg4 mi
12:35 AM70 °FPartly cloudy.No wind94%29.89 "Hg4 mi
10:35 PM
Aug 21
72 °FPartly cloudy.No wind94%29.92 "Hg4 mi
9:35 PM72 °FPartly cloudy.No wind94%29.92 "Hg4 mi
8:35 PM72 °FPartly cloudy.No wind94%29.89 "Hg4 mi
7:35 PM72 °FPartly cloudy.No wind94%29.86 "Hg4 mi
6:35 PM73 °FSprinkles. Broken clouds.6 mph89%29.83 "Hg5 mi
5:35 PM75 °FScattered clouds.3 mph83%29.83 "Hg5 mi
4:35 PM75 °FRain. Broken clouds.3 mph83%29.80 "Hg4 mi
3:35 PM73 °FRain. Broken clouds.5 mph94%29.83 "Hg4 mi
2:35 PM75 °FBroken clouds.7 mph83%29.86 "Hg4 mi
1:35 PM77 °FBroken clouds.9 mph79%29.89 "Hg4 mi
Weather by CustomWeather, © 2014

See weather overviewHow to use our weather pages